Regional Weather Roundup
Issued by NWS

Home | Current Version | Previous Version | Text Only | Print | Product List | Glossary Off
Versions: 1 2 3 4 5 6 7 8 9 10 11 12 13 14 15 16 17 18 19 20 21 22 23 24 25 26 27 28 29 30 31 32 33 34 35 36 37 38 39 40 41 42 43 44 45 46 47 48 49 50

000
ASUS43 KMPX 070901
RWRMN
WEATHER ROUNDUP FOR MINNESOTA
NATIONAL WEATHER SERVICE TWIN CITIES/CHANHASSEN MN
400 AM CDT TUE JUL 07 2015


NOTE: "FAIR" INDICATES FEW OR NO CLOUDS BELOW 12,000 FEET WITH NO
SIGNIFICANT WEATHER AND/OR OBSTRUCTIONS TO VISIBILITY. N/A MEANS
CURRENT SKY AND/OR WEATHER CONDITIONS ARE NOT AVAILABLE.

MNZ060>063-068>070-071000-
   Twin Cities Metro

CITY           SKY/WX    TMP DP  RH WIND       PRES   REMARKS
TWIN CITIES    CLEAR     55  48  77 NW7       30.09R
ST PAUL        CLEAR     53  48  83 NW9       30.09R
CRYSTAL        CLEAR     55  48  77 N8        30.08S
BLAINE         CLEAR     54  50  87 NW8       30.09S
LAKEVILLE      CLEAR     52  48  87 NW7       30.08S
EDEN PRAIRIE   CLEAR     55  48  77 NW8       30.08R
SOUTH ST PAUL  CLEAR     55  47  74 NW6       30.08S
LAKE ELMO      FAIR      52  48  87 NW3       30.09R
$$
MNZ001>005-007-008-013>017-022>024-027-028-071000-
   Northwest Minnesota

CITY           SKY/WX    TMP DP  RH WIND       PRES   REMARKS
BEMIDJI        CLEAR     43  42  96 W6        30.14S
HALLOCK        CLEAR     43  41  93 CALM      30.16R FOG
ROSEAU         CLEAR     48  45  87 W8        30.14S
WARROAD        CLEAR     45  41  87 W3        30.14F
THIEF RVR FALL CLEAR     48  45  87 CALM      30.17R
CROOKSTON      CLEAR     46  45  93 CALM      30.18S
FOSSTON        CLEAR     41  39  93 CALM      30.17S
DETROIT LAKES  CLEAR     46  45  93 CALM      30.18S
MOORHEAD       CLEAR     46  43  87 CALM      30.19S
PARK RAPIDS    CLEAR     47  43  86 NW6       30.15R
MAHNOMEN       FAIR      44  43  97 SW3       30.17R
$$
MNZ006-009>011-018-025>026-071000-
   North Central Minnesota

CITY           SKY/WX    TMP DP  RH WIND       PRES   REMARKS
BAUDETTE       CLEAR     46  43  89 W7        30.12S
FLAG ISLAND    CLEAR     52  45  76 NW10      30.11S
INTL FALLS     CLEAR     39  38  96 CALM      30.10R
WASKISH        CLEAR     52  46  82 NW6       30.13S
BIG FORK       CLEAR     43  39  87 CALM      30.13R
LONGVILLE      CLEAR     50  46  87 CALM      30.13R
GRAND RAPIDS   CLEAR     46  43  87 CALM      30.12R
CRANE LAKE     PTCLDY    46  45  93 NW2       30.10S
COOK           CLEAR     45  43  93 W3        30.10S
WALKER         FAIR      45  44  97 CALM      30.14R
$$
MNZ012-019>021-037-071000-
   Northeast Minnesota

CITY           SKY/WX    TMP DP  RH WIND       PRES   REMARKS
DULUTH         CLOUDY    54  43  66 N5        30.08R
ELY            CLOUDY    52  45  76 CALM      30.07R
HIBBING        CLEAR     45  42  89 NW3       30.10R
DULUTH HARBOR    N/A     57  46  67 N12       30.09R
TWO HARBORS    CLOUDY    55  46  71 CALM      30.06R
SILVER BAY     CLOUDY    54  46  76 CALM      30.05R
GRAND MARAIS     N/A     52  48  86 CALM      30.03R
G MARAIS ARPRT CLOUDY    48  43  81 NW6       30.04R
$$
MNZ029>031-032-039>041-046>048-054>057-064-071000-
   West Central Minnesota

CITY           SKY/WX    TMP DP  RH WIND       PRES   REMARKS
FERGUS FALLS   CLEAR     46  46 100 N7        30.18R
WHEATON        CLEAR     46  45  93 CALM      30.20R
MORRIS         CLEAR     48  46  93 NW6       30.16R
ALEXANDRIA     CLEAR     51  47  86 N5        30.17R
ELBOW LAKE     FAIR      51  47  88 N6        30.16S
WADENA         PTCLDY    46  45  93 NW5       30.15R
GLENWOOD       CLEAR     48  45  87 N5        30.16R
APPLETON       CLEAR     48  46  93 NW5       30.16S
BENSON         CLEAR     46  45  93 N5        30.16S
ORTONVILLE     CLEAR     52  46  82 NW6       30.17S
MADISON        CLEAR     52  48  87 NW9       30.16S
WILLMAR        FAIR      48  46  93 NW8       30.16R
$$
MNZ033>034-036-042>043-049>051-058-059-071000-
   Central Minnesota

CITY           SKY/WX    TMP DP  RH WIND       PRES   REMARKS
ST CLOUD       CLEAR     50  47  89 N5        30.12R
SAUK CENTRE    FAIR      49  45  85 NW5       30.15R
PAYNESVILLE    CLEAR     46  45  95 W5        30.15R
AITKIN         CLEAR     43  37  81 CALM      30.11R
PINE RIVER     CLEAR     48  46  93 CALM      30.17R
BRAINERD       CLEAR     50  45  83 NW6       30.13R
STAPLES        CLEAR     46  45  93 NW6       30.15R
LONG PRAIRIE   FAIR      46  43  87 NW5       30.15R
LITTLE FALLS   CLEAR     46  43  87 CALM      30.14R
LITCHFIELD     CLEAR     52  48  87 NW6       30.13R
BUFFALO        CLEAR     53  47  80 NW6       30.12S
MAPLE LAKE     CLEAR     52  49  89 NW6       30.12S
$$
MNZ037-044-045-052-053-071000-
   East Central Minnesota

CITY           SKY/WX    TMP DP  RH WIND       PRES   REMARKS
PRINCETON      CLEAR     50  46  87 CALM      30.12R
MORA           CLEAR     50  45  81 CALM      30.12R
CAMBRIDGE      CLEAR     52  43  71 NW5       30.08S
RUSH CITY      PTCLDY    49  46  87 NW3       30.09S
MOOSE LAKE     CLOUDY    52  43  71 CALM      30.09R
HINCKLEY       CLOUDY    52  45  76 NW5       30.10R
CLOQUET        CLOUDY    54  41  62 N3        30.09R
MCGREGOR       CLEAR     46  43  87 NW3       30.12R
$$
MNZ071>073-080-081-089-090-097-098-071000-
   Southwest Minnesota

CITY           SKY/WX    TMP DP  RH WIND       PRES   REMARKS
GRANITE FALLS  CLEAR     50  47  89 NW6       30.16R
CANBY          CLEAR     51  48  90 NW7       30.17S
MARSHALL       CLEAR     50  45  81 NW6       30.14R
REDWOOD FALLS  CLEAR     51  47  86 N7        30.13R
OLIVIA         CLEAR     46  43  87 N8        30.13S
PIPESTONE      CLEAR     52  46  82 CALM      30.16R
WINDOM         CLEAR     48  46  93 NW5       30.14R
WORTHINGTON    CLEAR     48  45  87 NW7       30.14S
JACKSON        PTCLDY    50  46  87 NW7       30.13S
TRACY          CLEAR     51  49  93 NW6       30.15R
SLAYTON        CLEAR     49  49  99 CALM      30.16S
$$
MNZ065>067-074>077-082>085-091>093-071000-
   South Central Minnesota

CITY           SKY/WX    TMP DP  RH WIND       PRES   REMARKS
MANKATO        CLEAR     52  46  82 N10       30.10R
NEW ULM        CLEAR     50  48  93 NW8       30.12R
ST JAMES         N/A     52  48  87 NW7       30.13R
FAIRMONT       CLEAR     52  45  76 NW9       30.10S
GLENCOE        CLEAR     52  49  90 NW5       30.11R
FARIBAULT      CLEAR     54  50  87 NW6       30.08S
OWATONNA       CLEAR     50  48  93 NW3       30.08R
WASECA         CLEAR     52  48  87 NW7       30.10R
$$
MNZ078>079-086>088-094>096-071000-
   Southeast Minnesota

CITY           SKY/WX    TMP DP  RH WIND       PRES   REMARKS
ROCHESTER      CLEAR     53  48  83 N13       30.05S
RED WING       MOCLDY    55  48  76 CALM      30.05S
DODGE CENTER   PTCLDY    52  48  87 N8        30.06R
WINONA         PTCLDY    55  50  82 NW7       30.02S
AUSTIN         CLEAR     54  50  87 N9        30.05R
PRESTON        CLEAR     53  48  83 N10       30.03S
$$
ABBREVIATIONS USED IN REMARKS
   TC - TEMPERATURES IN CELSIUS
  WCI - WIND CHILL INDEX
   HX - HEAT INDEX
  VSB - VISIBILITY
$$



USA.gov is the U.S. government's official web portal to all federal, state and local government web resources and services.